Date,TemperatureHighF,TemperatureAvgF,TemperatureLowF,DewpointHighF,DewpointAvgF,DewpointLowF,HumidityHigh,HumidityAvg,HumidityLow,PressureMaxIn,PressureMinIn,WindSpeedMaxMPH,WindSpeedAvgMPH,GustSpeedMaxMPH,PrecipitationSumIn
2013-2-1,33.1,25.5,16.4,21.2,10.8,3.0,80,54,35,29.93,29.37,17,6,17,0.00
2013-2-2,30.8,20.7,11.2,19.5,10.3,2.6,75,64,48,29.93,29.55,7,1,7,0.00
2013-2-3,36.4,28.9,23.6,27.9,21.9,14.2,81,75,60,29.55,29.36,17,3,17,0.00
2013-2-4,39.6,30.9,23.4,22.1,16.9,12.3,66,56,44,29.63,29.43,13,3,13,0.00
2013-2-5,41.0,34.1,30.4,34.0,28.0,21.6,86,78,66,29.49,29.40,2,0,2,0.00
2013-2-6,50.6,36.0,26.3,33.9,27.6,20.0,87,72,49,29.89,29.49,9,2,9,0.00
2013-2-7,41.4,31.9,23.4,26.8,23.1,17.6,81,70,54,29.96,29.75,6,1,6,0.00
2013-2-8,43.6,36.3,32.2,37.4,29.4,23.0,83,76,66,29.74,29.35,14,3,14,0.00
2013-2-9,52.0,33.5,23.8,23.0,18.4,12.3,68,55,32,29.94,29.55,13,4,13,0.00
2013-2-10,48.4,33.2,16.4,23.6,17.0,9.5,76,54,32,30.00,29.73,7,2,7,0.00
2013-2-11,68.4,50.0,35.5,51.0,36.0,22.3,87,63,25,29.73,29.25,13,4,13,0.00
2013-2-12,71.8,47.7,37.8,33.8,26.2,21.2,53,44,25,29.55,29.40,11,4,11,0.00
2013-2-13,48.4,35.5,26.8,32.9,25.6,18.2,81,67,54,29.50,29.23,3,0,3,0.00
2013-2-14,57.2,39.7,29.9,34.4,28.0,21.6,84,65,38,29.56,29.35,8,2,8,0.00
2013-2-15,57.8,41.3,29.7,37.6,30.5,22.2,82,67,43,29.58,29.48,8,1,8,0.00
2013-2-16,40.1,34.1,27.4,31.0,24.5,14.3,84,68,54,29.55,29.43,3,1,3,0.00
2013-2-17,32.6,26.3,22.7,15.8,11.8,6.8,69,55,36,29.77,29.43,14,6,14,0.00
2013-2-18,50.2,32.1,16.6,19.2,12.6,5.4,63,46,26,29.92,29.65,9,2,9,0.00
2013-2-19,45.0,36.3,29.3,34.4,23.5,16.7,79,60,49,29.65,29.34,10,3,10,0.00
2013-2-20,36.0,30.6,23.2,20.0,13.9,7.9,55,50,42,29.74,29.42,16,8,16,0.00
2013-2-21,48.1,30.7,22.7,20.9,14.0,8.8,61,51,33,29.88,29.69,11,5,11,0.00
2013-2-22,32.6,29.9,25.6,26.8,21.6,14.1,79,71,60,29.92,29.73,5,2,5,0.00
2013-2-23,58.3,40.1,32.8,43.1,32.5,27.0,82,75,57,29.72,29.40,5,1,5,0.00
2013-2-24,57.1,41.7,30.4,35.2,28.4,16.9,86,62,33,29.69,29.37,15,3,15,0.00
2013-2-25,42.1,29.9,25.2,20.3,16.5,15.0,67,58,41,29.75,29.69,2,0,2,0.00
2013-2-26,39.6,33.0,24.1,36.5,26.8,14.9,90,78,64,29.75,29.21,6,1,6,0.00
2013-2-27,57.6,44.7,37.1,44.4,35.0,31.8,89,71,45,29.26,29.14,10,3,10,0.00
2013-2-28,44.6,40.5,36.2,33.7,28.6,26.3,72,63,51,29.30,29.21,10,4,10,0.00